This is the latest recevied weather packets stored in our database for station/object KMASWX. If no packets are shown the sender has not sent any weather packets the latest 10 day(s).
| Time | Temp. | Humidity | Pressure | Rain* | Wind** | Luminosity | Snow |
|---|---|---|---|---|---|---|---|
| 1777426077 | 16.67° C | 46% | - | 0 mm | - | - | - |
| 1777425774 | 17.22° C | 45% | - | 0 mm | - | - | - |
| 1777425467 | 17.78° C | 44% | - | 0 mm | - | - | - |
| 1777425163 | 17.78° C | 46% | - | 0 mm | - | - | - |
| 1777424856 | 17.22° C | 44% | - | 0 mm | - | - | - |
| 1777424553 | 17.22° C | 45% | - | 0 mm | - | - | - |
| 1777424248 | 17.22° C | 46% | - | 0 mm | - | - | - |
| 1777423641 | 17.22° C | 46% | - | 0 mm | - | - | - |
| 1777422724 | 17.22° C | 48% | - | 0 mm | - | - | - |
| 1777422420 | 17.22° C | 47% | - | 0 mm | - | - | - |
| 1777422116 | 17.22° C | 49% | - | 0 mm | - | - | - |
| 1777421504 | 16.67° C | 52% | - | 0 mm | - | - | - |
| 1777421196 | 16.67° C | 55% | - | 0 mm | - | - | - |
| 1777420893 | 16.11° C | 54% | - | 0 mm | - | - | - |
| 1777420286 | 16.67° C | 49% | - | 0 mm | - | - | - |
| 1777419979 | 16.11° C | 50% | - | 0 mm | - | - | - |
| 1777419676 | 16.11° C | 49% | - | 0 mm | - | - | - |
| 1777419372 | 16.11° C | 48% | - | 0 mm | - | - | - |
| 1777419069 | 17.22° C | 46% | - | 0 mm | - | - | - |
| 1777418762 | 16.67° C | 48% | - | 0 mm | - | - | - |
| 1777418151 | 16.67° C | 49% | - | 0 mm | - | - | - |
| 1777417847 | 16.67° C | 46% | - | 0 mm | - | - | - |
| 1777417235 | 16.67° C | 47% | - | 0 mm | - | - | - |
| 1777416932 | 16.11° C | 47% | - | 0 mm | - | - | - |
| 1777416628 | 16.11° C | 48% | - | 0 mm | - | - | - |
* Rain latest 24 hours (hover to see other rain measurements)
** Current wind speed in m/s (hover to see current wind gust speed)